Theta_e
318 318 318 318 317 317 317 317 318 318 319 319 320 319 318 318 318 315 306 312 314 327 326 316 312 310 310 309 311 309 302 298 299 300 302 308 307 311 313 310 312 322 333 338 345
318 318 318 317 317 317 317 317 317 318 319 319 320 320 318 319 313 309 320 323 328 333 310 309 306 307 305 306 310 307 301 300 304 305 304 308 307 309 309 311 311 313 332 340 344
318 318 318 317 317 317 316 316 317 317 318 318 319 319 319 318 304 303 328 330 334 323 310 310 307 306 303 305 307 306 301 304 305 307 308 308 307 310 308 308 311 311 314 336 341
317 318 317 317 317 317 316 316 316 316 317 317 318 319 319 314 296 308 333 333 334 313 311 308 305 302 301 301 305 302 306 307 308 308 307 305 307 306 308 310 314 313 313 329 337
317 317 317 316 316 316 316 316 316 316 315 316 318 319 314 303 304 320 339 331 323 310 310 308 305 302 300 301 301 301 302 304 306 305 305 305 305 305 307 312 313 313 316 324 333
317 316 316 316 316 316 316 316 315 315 315 315 318 318 307 299 307 327 326 318 313 310 307 306 305 304 302 302 302 304 303 303 304 305 304 304 305 305 309 310 311 312 318 334 335
315 316 316 316 316 315 315 315 314 314 314 316 319 315 306 304 315 324 319 314 311 310 306 305 306 305 305 302 304 302 301 303 303 304 304 305 302 303 308 309 310 311 312 322 336
314 315 315 315 315 315 315 314 314 316 315 316 320 315 303 311 315 316 317 310 309 310 309 309 307 307 305 305 303 301 299 297 301 302 303 303 299 306 307 307 309 309 311 312 314
314 314 314 314 314 314 313 313 318 318 318 320 314 307 302 316 310 314 315 309 309 308 309 309 308 305 305 302 299 298 294 295 297 301 302 302 299 306 308 307 308 310 310 310 312
314 314 313 313 313 313 312 314 321 320 319 319 315 305 308 305 312 314 314 312 309 310 308 306 305 302 301 300 292 293 294 294 295 300 301 299 300 305 306 306 308 308 308 310 312
314 313 313 313 313 312 311 313 306 305 313 304 304 306 306 310 312 311 313 310 309 307 301 303 299 296 299 301 300 298 297 296 297 300 298 299 300 303 306 306 307 306 308 313 316
314 313 313 312 312 311 308 306 304 305 299 304 305 306 308 309 303 308 312 305 304 301 301 299 296 301 302 300 298 297 294 295 298 298 299 299 300 303 305 303 307 309 311 313 316
312 312 312 312 311 308 304 306 309 305 299 301 303 303 304 307 302 303 309 306 303 300 300 298 299 301 299 297 296 296 295 296 296 297 299 298 298 301 302 307 310 311 312 314 314
312 311 311 310 309 305 306 307 309 305 295 297 301 303 305 306 301 308 309 306 301 300 299 299 302 299 298 297 298 295 299 299 297 296 294 298 292 299 302 302 308 310 312 314 316
311 311 310 309 307 306 308 309 308 304 286 298 300 308 304 301 302 303 308 306 301 299 299 298 298 297 297 298 300 297 301 299 298 297 295 295 294 298 300 299 305 309 312 315 317
310 310 309 308 306 309 309 307 306 294 284 295 299 298 298 300 301 303 302 306 304 300 300 299 302 299 299 298 300 300 299 298 296 296 290 295 294 295 301 301 306 310 314 315 317
309 309 307 308 305 310 307 306 294 287 295 291 293 296 296 295 298 298 296 295 295 294 295 296 295 298 298 296 298 300 298 291 289 288 288 294 292 297 303 305 306 308 312 314 317
306 306 307 309 309 307 306 299 287 290 290 295 294 296 292 295 296 297 295 292 295 295 293 292 288 294 296 294 293 294 297 291 284 286 290 295 291 298 304 307 308 310 312 314 315
304 306 310 310 307 306 305 291 288 290 292 292 293 291 291 294 295 296 294 292 293 295 291 291 287 295 296 296 295 292 292 293 291 292 290 293 297 303 305 304 304 305 308 310 312
301 302 307 309 306 306 299 290 291 294 294 293 288 291 288 291 292 293 293 295 293 295 298 291 287 292 294 295 296 293 294 290 291 283 283 289 292 296 299 299 301 302 304 306 309
302 301 308 308 308 301 292 292 294 296 296 293 290 290 290 289 290 291 292 295 296 295 299 297 293 291 297 292 291 293 292 290 292 290 285 285 289 303 299 300 301 302 304 305 308
300 295 306 306 298 295 293 293 295 295 297 294 294 292 290 291 290 290 290 292 296 296 292 296 294 287 289 292 294 293 292 293 287 286 290 289 289 297 297 298 300 300 302 303 305
297 297 307 306 291 292 294 293 295 295 294 293 292 293 293 291 288 289 291 295 296 294 292 294 289 284 285 288 291 289 291 290 290 289 287 285 289 295 297 298 300 300 301 303 304
300 294 299 299 296 293 291 291 292 296 293 293 292 293 291 290 292 289 290 294 296 296 297 295 290 287 283 286 288 286 288 289 288 285 285 286 287 292 294 296 298 300 301 302 302
298 294 294 292 294 293 292 291 289 290 293 294 291 291 290 288 289 289 291 293 295 296 295 294 287 287 287 287 289 288 288 288 287 288 284 286 286 290 294 296 297 299 300 300 301
297 296 296 294 292 292 290 289 288 289 290 290 290 290 292 289 290 288 290 291 291 295 293 293 288 288 286 288 288 286 288 288 288 288 288 288 287 295 297 298 297 298 299 298 300
297 297 296 291 291 291 290 290 289 291 292 293 291 290 289 290 294 295 295 295 293 291 291 291 290 287 282 286 286 282 286 288 288 290 289 286 291 296 295 296 297 298 299 299 299
Wind_Speed
19 19 18 18 17 17 16 15 14 13 12 11 9 7 8 8 8 3 7 5 6 9 5 11 6 5 3 4 3 3 4 7 7 7 3 0 4 5 7 9 10 3 4 5 15
20 19 19 19 18 17 17 16 14 13 12 11 9 8 6 6 3 8 6 6 8 13 10 12 10 9 5 5 4 5 5 8 3 4 2 6 3 8 7 12 4 7 0 8 12
21 21 20 21 21 18 18 17 16 14 12 11 9 8 7 4 5 2 3 9 12 11 6 4 10 4 4 4 6 5 6 6 5 8 5 7 6 2 7 8 4 11 11 7 9
21 21 21 21 21 20 19 18 16 14 13 10 9 6 5 3 3 2 7 12 8 6 9 9 7 7 6 8 6 6 6 6 3 6 4 6 2 6 9 13 16 15 12 8 12
21 22 22 21 21 20 19 19 17 15 12 10 7 4 3 0 8 2 9 13 10 8 10 8 8 6 8 6 7 8 4 6 8 7 8 6 10 6 10 15 14 14 9 11 13
22 23 23 22 22 20 19 18 17 15 11 8 4 2 2 5 2 5 12 13 11 8 8 8 8 6 5 6 8 6 5 4 4 6 5 7 6 5 5 8 8 9 8 8 9
24 24 24 23 23 22 20 20 17 16 10 6 4 2 2 12 6 4 9 6 9 6 6 4 5 6 7 6 3 2 5 4 7 4 5 8 7 6 2 7 9 9 8 6 7
26 24 24 24 24 24 24 22 18 10 5 4 7 1 8 1 3 6 7 4 3 3 2 4 5 3 2 5 3 2 2 5 3 2 1 6 8 5 3 7 9 9 9 8 8
26 25 25 24 24 24 21 19 6 9 9 12 4 1 8 0 4 6 10 6 8 5 2 6 3 1 4 5 3 0 5 5 3 1 3 2 3 7 6 5 7 6 5 7 9
27 27 26 25 24 21 19 4 7 8 7 3 1 4 5 2 2 5 4 8 4 9 5 4 3 5 4 7 6 5 5 4 5 3 3 5 11 9 7 7 8 6 5 7 8
29 28 28 26 23 16 7 2 2 2 3 5 6 7 8 7 3 4 6 9 5 5 8 5 7 11 13 9 5 4 4 8 4 5 4 4 8 9 8 9 6 3 6 8 10
29 29 29 27 22 12 3 5 5 5 10 8 14 11 13 6 7 2 11 10 9 12 7 5 12 13 7 8 6 5 4 7 7 3 7 3 9 9 7 5 8 8 9 11 13
30 30 31 27 20 1 3 7 6 4 4 6 3 4 3 5 6 6 13 7 11 12 12 13 3 7 11 8 8 6 8 6 8 1 5 5 4 2 7 10 8 10 10 11 14
29 29 29 29 1 3 1 5 10 5 3 9 5 4 2 2 3 4 11 6 5 18 9 8 5 7 8 10 11 9 13 10 8 3 3 2 3 4 2 6 11 13 13 14 15
29 28 23 11 5 2 9 13 5 4 2 12 7 3 6 5 8 7 3 4 11 8 7 6 7 10 8 11 13 8 6 10 7 7 3 6 5 4 4 5 12 13 13 13 14
31 28 21 2 2 5 12 9 3 2 1 6 6 11 8 11 7 4 5 6 2 5 2 1 2 3 3 2 9 1 5 3 2 5 9 8 7 6 3 6 9 9 11 12 14
32 27 10 3 9 16 10 1 1 1 5 7 8 10 6 9 11 9 6 9 3 8 8 1 4 4 4 3 3 4 6 5 8 8 9 5 7 5 2 3 5 8 10 13 13
32 20 2 3 11 8 2 2 1 3 4 3 7 5 6 11 9 9 3 5 8 2 4 3 6 8 9 5 2 3 3 5 6 5 2 2 5 6 4 3 3 6 8 10 13
23 5 2 9 9 3 2 3 3 2 5 7 6 3 4 5 5 7 6 2 4 6 4 1 4 2 8 11 3 3 2 3 4 1 4 4 3 4 4 3 4 4 5 10 12
6 4 4 16 8 2 4 4 1 2 4 3 4 4 6 7 6 8 3 1 2 2 1 3 3 4 5 3 8 7 2 3 1 6 10 6 5 4 8 5 5 7 9 11 11
3 4 7 16 2 6 4 3 2 1 6 4 3 3 2 3 4 7 3 4 7 2 5 3 1 5 4 2 3 4 1 3 1 3 4 5 4 3 3 4 7 6 8 10 10
4 4 7 9 5 3 2 4 3 3 4 2 1 1 2 3 3 3 3 4 9 3 2 2 4 3 5 4 5 6 7 7 5 6 2 3 2 4 5 6 7 9 13 13 11
4 4 5 5 4 3 4 3 2 3 3 3 2 3 2 1 3 2 3 5 8 2 3 5 3 2 3 4 3 4 4 4 4 0 14 10 3 4 4 5 7 10 11 12 13
3 4 3 5 2 2 3 2 4 2 2 2 2 1 2 1 1 3 3 2 5 3 6 2 2 5 5 5 1 3 4 2 2 4 5 6 3 5 2 4 5 7 8 9 11
3 2 2 4 3 3 1 2 3 3 3 4 2 5 3 3 4 3 2 4 1 6 2 1 4 1 1 1 2 4 6 7 8 7 7 6 9 8 1 2 4 3 6 8 9
2 1 2 1 2 3 2 2 2 4 3 2 1 3 1 3 4 7 2 1 2 4 3 4 3 2 2 2 4 9 9 9 9 11 11 12 14 0 3 2 5 8 11 12 9
1 1 2 2 1 2 1 2 1 5 1 1 2 2 5 4 3 5 6 7 5 4 3 1 4 2 4 2 6 11 15 14 8 6 6 9 5 1 1 7 10 12 13 13 10
Wind_Direction
357 355 352 350 347 345 345 343 338 335 332 324 313 314 322 320 308 172 244 213 175 164 161 130 121 129 123 128 122 159 207 219 217 194 220 259 2 331 296 287 315 300 292 6 134
354 351 347 345 343 341 341 341 336 332 328 323 317 312 317 322 282 253 243 208 207 158 143 148 148 145 136 146 158 202 225 218 218 205 235 314 328 318 309 308 278 301 87 118 145
351 348 345 343 341 337 336 336 334 330 324 322 320 312 308 304 285 253 155 179 155 160 143 120 137 147 152 164 178 175 240 192 209 226 251 288 287 253 292 294 255 313 322 174 172
347 344 341 339 336 332 330 328 327 323 317 314 311 300 298 259 307 107 156 167 140 138 131 131 142 158 164 184 182 211 223 204 244 222 217 266 280 271 260 266 289 299 284 220 200
342 339 338 336 334 330 324 321 318 316 310 306 299 285 242 218 252 21 132 160 148 161 158 154 168 159 192 186 163 227 229 200 241 245 252 277 256 263 255 275 304 301 274 246 217
339 335 333 333 331 328 323 318 312 309 303 296 282 212 181 261 92 142 137 146 165 159 160 165 191 187 149 180 203 199 207 255 246 249 220 222 246 186 258 314 318 326 320 278 250
339 333 331 331 330 329 324 319 312 303 290 273 220 192 206 253 113 136 162 172 166 162 161 200 173 188 147 157 186 145 262 266 212 221 227 203 237 225 300 322 314 320 322 286 260
337 331 329 330 330 329 328 324 316 294 235 194 160 183 251 196 128 159 178 158 181 182 129 170 168 107 290 119 81 203 229 250 122 172 3 215 240 254 109 335 313 310 297 296 272
335 330 329 330 331 330 329 328 7 97 123 131 128 233 268 328 235 201 178 176 150 160 188 124 155 94 155 180 194 74 242 224 274 347 131 251 257 265 332 318 298 292 307 320 319
332 330 330 330 329 329 328 299 109 104 109 171 149 262 241 287 167 136 170 157 154 136 126 155 133 183 155 197 226 191 212 215 235 131 292 283 264 267 292 300 292 335 337 335 351
332 332 331 331 330 329 327 225 263 180 176 240 258 260 283 285 250 206 164 168 133 168 184 182 206 212 207 208 230 198 242 264 252 245 267 263 265 287 288 283 310 354 11 351 342
333 334 333 333 331 335 166 65 71 321 301 256 265 264 260 277 285 165 154 166 189 197 140 176 229 227 207 177 185 195 218 259 298 214 215 265 282 294 297 59 56 25 5 350 341
335 336 334 335 327 63 5 107 336 189 277 308 220 272 324 165 220 250 189 163 190 187 194 213 190 183 181 169 187 211 225 234 258 119 236 258 225 314 100 98 63 35 5 353 348
334 336 337 330 344 341 153 341 327 196 315 348 6 36 342 161 228 235 209 175 172 204 192 230 222 173 183 205 203 230 215 236 248 234 250 261 227 279 107 118 41 17 7 355 350
333 335 339 353 314 329 327 329 321 212 339 343 355 331 348 346 312 43 56 228 196 160 180 195 194 190 206 228 193 226 192 208 210 221 219 188 242 174 357 126 13 7 6 2 359
334 335 337 164 225 277 321 312 184 240 339 354 345 351 3 15 21 335 21 43 40 148 164 140 48 43 335 66 195 98 164 118 134 184 239 232 240 171 1 345 0 22 23 19 16
332 330 324 317 330 324 318 319 227 224 347 9 336 338 343 4 19 23 40 48 19 212 221 156 45 352 10 197 96 203 193 217 215 208 251 128 218 34 30 37 20 10 17 19 22
329 324 272 251 317 316 312 23 217 10 6 0 335 327 44 3 25 13 78 79 45 34 89 211 162 11 357 23 8 70 268 244 255 230 162 169 203 108 112 113 34 36 27 18 18
322 337 328 339 339 305 22 58 53 8 330 333 323 21 20 12 359 12 27 51 35 16 81 136 104 317 48 44 337 93 95 358 105 38 248 141 111 179 186 125 88 48 21 15 6
336 327 342 338 334 43 71 90 61 344 328 333 348 12 344 352 353 8 330 37 62 14 92 128 147 22 7 323 45 64 45 204 104 221 241 186 193 139 166 102 58 44 18 4 356
359 354 352 341 337 49 65 47 320 8 12 354 347 302 360 351 315 328 329 51 10 351 43 114 308 168 294 38 340 335 239 79 323 248 271 252 144 72 88 356 335 349 346 342 338
348 327 356 332 50 31 54 327 313 338 7 360 41 33 50 6 305 288 315 335 337 284 88 56 131 208 262 335 278 248 260 233 230 184 212 317 178 69 42 28 3 12 9 357 345
355 296 340 341 61 31 330 318 296 354 3 0 33 24 16 354 303 350 348 345 358 22 160 171 169 182 198 206 184 217 163 135 115 128 252 255 205 143 67 45 22 15 9 12 13
332 334 5 50 37 34 7 358 331 9 85 12 29 40 8 357 30 305 319 358 358 48 68 122 150 231 271 345 33 204 179 137 207 229 258 243 287 211 341 19 17 23 21 17 16
7 57 22 349 32 358 295 334 328 331 38 18 107 39 358 295 308 284 306 293 58 360 34 338 246 250 263 187 237 247 241 238 233 249 255 279 266 289 259 346 9 2 350 341 350
354 324 135 341 296 301 355 86 335 334 312 3 59 11 350 262 279 291 306 294 336 355 27 8 179 207 239 313 284 270 250 242 244 255 262 262 271 146 116 323 331 340 340 337 334
81 112 275 69 349 272 89 346 320 340 238 54 21 296 280 291 283 287 274 279 278 308 341 306 164 175 264 8 302 273 248 229 222 210 245 243 298 130 334 344 334 326 323 318 319